Volver al catálogo

DUMMY CUBESAT

ActivoCienciaSSO
NORAD 52983·PAYLOAD·🇰🇷 South Korea

Lanzado Jun 21, 2022 desde Naro Space Center

Loading…

Próximos Pases (próximas 24 horas)

TLE

ActualizadoSource: Space-Track

Época: Sep 14, 2026, 15:17 UTC

1 52983U 22065H   26257.63710541  .00000242  00000-0  59425-4 0  9998
2 52983  98.2421  38.2417 0008907 103.4158 256.8036 14.60652127223209

Sigue DUMMY CUBESAT en tiempo real con AllMySat

Download on the App Store